FENGYUN 1C DEB

Satellite information

Favourite Embed

Satellite Type and Status

DEBRISIN ORBIT

Key statistics

Satellite FENGYUN 1C DEB at a glance.

Uptime

9714

Days in orbit

Revolutions

≈ 14.2

Per day

Orbit

SSO

Sun Synchronous Orbit

Inclination

99.1

Latest

Satellite identification and parameters

Extended collection of information and parameters for FENGYUN 1C DEB.

Object identification

Identified? True

Debris? True

Object name: FENGYUN 1C DEB

International designator: 1999-025EUT

Object number (NORAD): 38803

Object ID (CCSDS): 38803

Country: PEOPLES REPUBLIC OF CHINA (PRC)

Current information (Y/N): Y

RCS size: SMALL

Orbital parameters

Period: 101.148 minutes

Inclination: 99.1403 deg

SMA: 7191.152 km

Apoapsis: 859.213 km

Periapsis: 766.821 km

RAAN: 349.7804 deg

Eccentricy: 0.006424

Argument of periapsis: 38.5359 deg

Mean anomaly: 322.0379 deg

Mean motion: 14.23655987 rev/day

Mean motion (dot): 0.00007334 rev/day2

B* drag term: 0.003165 1/REarth

Two-line elements (TLE)

Creation date: Dec. 12, 2025, 7:16 a.m.

Reference frame: TEME

Reference center: EARTH

Epoch: Dec. 11, 2025, 11:13 p.m. UTC

TLE line 0: 0 FENGYUN 1C DEB

TLE line 1: 1 38803U 99025EUT 25345.96752560 .00007334 00000-0 31650-2 0 9990

TLE line 2: 2 38803 99.1403 349.7804 0064240 38.5359 322.0379 14.23655987602019

Live tracking on map

Real-time ground track for satellite FENGYUN 1C DEB.

In-orbit conjunctions

A list of the most updated potential collisions computed for object FENGYUN 1C DEB.

Target Orbit TCA Probability of collision Miss distance Type
DODECAPOLE 2 SSO 2024-12-16 12:53:05 0.0005247276 59.0 (m) PAYLOAD
SL-16 R/B LEO 2024-11-14 04:53:18 0.0001016493 210.0 (m) ROCKET BODY
DMSP 5D-2 F8 (USA 26) SSO 2024-09-26 15:49:57 0.0001361448 837.0 (m) PAYLOAD

Associated space launch

Chinese polar orbiting meteorological satellite

FENGYUN 1C DEB was lifted into orbit during the mission ‘Long March 4B | Feng Yun 1C’, on board a Long March 4B space rocket.

The launch took place on May 10, 1999, 1:33 a.m. from Launch Complex 7.

For more information about the launch, click the button.

Launch to space Long March 4B | Feng Yun 1C
Long March 4B | Feng Yun 1C

Agency: N/A

Status: Launch Successful

Launch date: May 10, 1999, 1:33 a.m. UTC

Rocket: Long March 4B

Launch pad: Launch Complex 7

Location: Taiyuan Satellite Launch Center, People's Republic of China

...

Latest news about this satellite

There are no fresh news available about this satellite. Check back as we update our databases every day.


Newsletter sign-up

Weekly statistics, charts and insights to help you stay on top of the space industry.